Estación municipal de St. Hilari Sacalm (La Selva, Guilleries)

Consulta los datos en tiempo real de la estación municipal de St. Hilari Sacalm





Hora UTC 02:50
Temperatura 19.8 ºC
Humedad 76.9 %
Presión 1023.8 hPa
Pluja 0.0 mm
Velocidad viento 0.0 km/h
Dirección viento NNE
Radiación solar 0.1 W/m²

Webcam

Datos diarios 2026-09-04



Hora UTC (invierno +1h; verano +2h)
Temperatura (ºC) Humedad (%) Presión (hPa) Velocidad viento (km/h) Precipitación (mm) Radiación solar (W/m²)
Hora UTC Aire Humedad Presión Vel. Dir. Vel. Max Dir. Intent. máx 5 min. Rad. Sol.
00:05 20.0 75.8 1024.8 0.0 NNE 0.0 WNW 0.0 0.1
00:10 20.0 76.3 1024.7 0.0 NNE 0.0 W 0.0 0.1
00:15 20.1 76.4 1024.7 0.0 NNE 0.0 W 0.0 0.1
00:20 20.1 75.8 1024.7 0.0 NNE 0.0 SW 0.0 0.1
00:25 20.1 75.9 1024.7 0.0 NNE 0.0 WSW 0.0 0.1
00:30 20.1 76.4 1024.6 0.0 NNE 0.0 W 0.0 0.1
00:35 20.3 76.6 1024.5 0.0 NNE 0.0 WNW 0.0 0.1
00:40 20.5 75.4 1024.5 0.0 NNE 0.0 W 0.0 0.1
00:45 20.5 75.2 1024.5 0.0 NNE 0.0 WSW 0.0 0.1
00:50 20.4 75.1 1024.5 0.0 NNE 0.0 WSW 0.0 0.1
00:55 20.2 76.1 1024.4 0.0 NNE 0.0 SSW 0.0 0.1
01:00 20.1 77.1 1024.4 0.0 NNE 0.0 SW 0.0 0.1
01:05 20.0 77.6 1024.3 0.0 NNE 0.0 WNW 0.0 0.1
01:10 19.9 78.0 1024.3 0.0 NNE 0.0 W 0.0 0.1
01:15 19.9 78.2 1024.3 0.0 NNE 0.0 WNW 0.0 0.1
01:20 19.9 78.5 1024.2 0.0 NNE 0.0 W 0.0 0.1
01:25 20.0 78.1 1024.2 0.0 NNE 0.0 WSW 0.0 0.1
01:30 20.1 77.2 1024.2 0.0 NNE 0.0 S 0.0 0.1
01:35 20.0 77.7 1024.1 0.0 NNE 0.0 SW 0.0 0.2
01:40 20.0 78.2 1024.1 0.0 NNE 0.0 SW 0.0 0.1
01:45 20.1 77.8 1024.1 0.0 NNE 0.0 S 0.0 0.2
01:50 20.0 77.8 1024.1 0.0 NNE 0.0 SSW 0.0 0.1
01:55 20.0 77.8 1024.1 0.0 NNE 0.0 WSW 0.0 0.1
02:00 20.0 77.6 1024.0 0.0 NNE 0.0 S 0.0 0.1
02:05 20.1 77.2 1024.0 0.0 NNE 0.0 SSW 0.0 0.1
02:10 20.1 76.9 1024.0 0.0 NNE 0.0 SSW 0.0 0.1
02:15 20.0 76.8 1024.0 0.0 NNE 0.0 SSW 0.0 0.1
02:20 19.9 77.2 1023.9 0.0 NNE 0.0 S 0.0 0.1
02:25 19.8 77.5 1023.9 0.0 NNE 0.0 SW 0.0 0.1
02:30 19.9 76.7 1023.9 0.0 NNE 0.0 S 0.0 0.1
02:35 20.0 76.5 1023.9 0.0 NNE 0.0 S 0.0 0.1
02:40 19.8 77.0 1023.8 0.0 NNE 0.0 SSW 0.0 0.2
02:45 19.8 77.2 1023.8 0.0 NNE 0.0 SW 0.0 0.2
02:50 19.8 76.9 1023.8 0.0 NNE 0.0 SSW 0.0 0.1
Máxima 20.5 78.5 1024.8 0.0 NNE 0.0 SSW 0.0 0.2
Mínima 19.8 75.1 1023.8
Total 0.0